Location: Albuquerque Trailhead
(34.7934°N, 106.3736°W)
Time: 22:58:25
(UTC+00:00)

TIGRISAT - Visible Passes

Search period start: 22 March 2023 00:00
Search period end: 01 April 2023 00:00
Orbit: 601 x 682 km, 97.7° (Epoch: 22 March)

Date Brightness Start Highest point End Pass type
(mag) Time Alt. Az. Time Alt. Az. Time Alt. Az.
22 Mar ? 11:59:58 10° SSE 12:04:14 79° ENE 12:08:38 10° N visible
23 Mar ? 10:50:37 10° E 10:52:13 12° ENE 10:53:49 10° NE visible
23 Mar ? 12:24:04 10° S 12:28:15 52° W 12:32:32 10° NNW visible
24 Mar ? 01:55:12 10° NNW 01:58:11 17° WNW 02:01:09 10° WSW visible
24 Mar ? 11:12:39 10° ESE 11:15:56 22° ENE 11:19:18 10° NNE visible
25 Mar ? 11:35:44 10° SE 11:39:45 40° ENE 11:43:53 10° N visible
26 Mar ? 11:59:21 10° SSE 12:03:39 79° ENE 12:08:06 10° N visible
27 Mar ? 10:49:55 10° E 10:51:36 12° ENE 10:53:19 10° NE visible
27 Mar ? 12:23:25 10° S 12:27:38 52° W 12:31:59 10° NNW visible
28 Mar ? 01:54:37 10° NNW 01:57:36 17° WNW 02:00:35 10° WSW visible
28 Mar ? 11:11:58 10° ESE 11:15:19 22° ENE 11:18:44 10° NNE visible
29 Mar ? 11:35:02 10° SE 11:39:06 40° ENE 11:43:18 10° N visible
30 Mar ? 11:58:38 10° SSE 12:02:58 79° ENE 12:07:29 10° N visible
31 Mar ? 10:49:09 10° E 10:50:55 12° ENE 10:52:43 10° NE visible
31 Mar ? 12:22:41 10° S 12:26:57 53° W 12:31:21 10° NNW visible
